Oslo Airport, Norway

12:37 AM CEST on March 30, 2017 (GMT +0200)
Gardermoen

Weather History for ENGM - June, 2013

Change the Weather History Date:

Sunday, June 2, 2013

  Actual Average Record
Temperature  
Mean Temperature 60 °F -  
Max Temperature 68 °F 63 °F 81 °F (2016)
Min Temperature 53 °F 47 °F 37 °F (2012)
Degree Days  
Heating Degree Days 4    
Growing Degree Days 10 (Base 50)    
Moisture  
Dew Point 54 °F    
Average Humidity 85    
Maximum Humidity 94    
Minimum Humidity 56    
Precipitation  
Precipitation 0.31 in 0.10 in - ()
Sea Level Pressure  
Sea Level Pressure 29.90 in    
Wind  
Wind Speed 4 mph ()    
Max Wind Speed 12 mph    
Max Gust Speed -    
Visibility 6.1 miles    
Events Rain , Thunderstorm    
Averages and records for this station are not official NWS values.
T = Trace of Precipitation, MM = Missing Value Source: Averaged Metar Reports

Daily Weather History Graph

Daily Weather History Graph

Search for Another Location

Airport or City:

Trip Planner

Search our weather history database for the weather conditions in past years. The results will help you decide how hot, cold, wet, or windy it might be!

Date:

Astronomy

Jun. 02, 2013 Rise Set
Actual Time 4:01 AM CEST 10:27 PM CEST
Civil Twilight 2:34 AM CEST 11:56 PM CEST
Nautical Twilight Sun does not rise Sun does not rise
Astronomical Twilight Sun does not rise Sun does not rise
Moon 1:58 AM CEST (6/2) 3:10 PM CEST (6/2)
Length of Visible Light 21h 22m
Length of Day
18h 25m
Waning Crescent, 33% of the Moon is Illuminated
Jun 2
Waning Crescent
Jun 8
New
Jun 16
First Quarter
Jun 23
Full
Jun 30
Last Quarter

Hourly Weather History & Observations

Time (CEST) Temp. Dew Point Humidity Pressure Visibility Wind Dir Wind Speed Gust Speed Precip Events Conditions
12:20 AM 57.2 °F 53.6 °F 88% 29.86 in - Variable 2.3 mph - N/A   Clear
12:50 AM 57.2 °F 53.6 °F 88% 29.86 in - North 3.5 mph - N/A   Clear
1:20 AM 57.2 °F 53.6 °F 88% 29.86 in - NNW 3.5 mph - N/A   Clear
1:50 AM 57.2 °F 53.6 °F 88% 29.86 in - North 5.8 mph - N/A   Clear
2:00 AM 56 °F 53 °F 85%  in 34 mi NNE 4.5 mph - -   Partly Cloudy
2:20 AM 55.4 °F 53.6 °F 94% 29.86 in - NNE 4.6 mph - N/A   Clear
2:50 AM 55.4 °F 51.8 °F 88% 29.86 in - NNE 3.5 mph - N/A   Clear
3:20 AM 55.4 °F 51.8 °F 88% 29.89 in - NE 2.3 mph - N/A   Clear
3:50 AM 53.6 °F 50.0 °F 88% 29.86 in - NE 4.6 mph - N/A   Clear
4:20 AM 53.6 °F 50.0 °F 88% 29.86 in - NNE 4.6 mph - N/A   Clear
4:50 AM 53.6 °F 51.8 °F 94% 29.86 in - NNE 3.5 mph - N/A   Clear
5:20 AM 53.6 °F 51.8 °F 94% 29.86 in - NNE 3.5 mph - N/A   Clear
5:50 AM 55.4 °F 51.8 °F 88% 29.89 in - Variable 2.3 mph - N/A   Clear
6:20 AM 57.2 °F 53.6 °F 88% 29.89 in 6.2 mi Variable 2.3 mph - N/A   Mostly Cloudy
6:50 AM 59.0 °F 53.6 °F 82% 29.89 in 6.2 mi Variable 1.2 mph - N/A   Mostly Cloudy
7:20 AM 59.0 °F 53.6 °F 82% 29.89 in 6.2 mi Calm Calm - N/A   Mostly Cloudy
7:50 AM 59.0 °F 55.4 °F 88% 29.89 in 6.2 mi ESE 3.5 mph - N/A   Mostly Cloudy
8:00 AM 60 °F 55 °F 78%  in 28 mi Calm Calm - -   Mostly Cloudy
8:20 AM 59.0 °F 55.4 °F 88% 29.89 in 6.2 mi Variable 2.3 mph - N/A   Mostly Cloudy
8:50 AM 59.0 °F 55.4 °F 88% 29.92 in 6.2 mi East 5.8 mph - N/A   Mostly Cloudy
9:20 AM 60.8 °F 55.4 °F 82% 29.92 in 6.2 mi East 4.6 mph - N/A   Mostly Cloudy
9:50 AM 60.8 °F 55.4 °F 82% 29.89 in 6.2 mi ESE 5.8 mph - N/A   Mostly Cloudy
10:20 AM 62.6 °F 55.4 °F 77% 29.92 in 6.2 mi ESE 5.8 mph - N/A   Mostly Cloudy
10:50 AM 64.4 °F 55.4 °F 73% 29.89 in 6.2 mi East 3.5 mph - N/A   Mostly Cloudy
11:20 AM 64.4 °F 55.4 °F 73% 29.89 in 6.2 mi Variable 2.3 mph - N/A   Mostly Cloudy
11:50 AM 62.6 °F 57.2 °F 82% 29.89 in 6.2 mi West 4.6 mph - N/A   Mostly Cloudy
12:20 PM 66.2 °F 53.6 °F 64% 29.89 in 6.2 mi ESE 6.9 mph - N/A   Mostly Cloudy
12:50 PM 68.0 °F 51.8 °F 56% 29.86 in 6.2 mi ESE 10.4 mph - N/A   Mostly Cloudy
1:20 PM 59.0 °F 53.6 °F 82% 29.89 in 6.2 mi Variable 11.5 mph - N/A Rain , Thunderstorm Thunderstorms and Rain
1:50 PM 59.0 °F 53.6 °F 82% 29.92 in 5.6 mi WSW 4.6 mph - N/A Rain Rain Showers
2:00 PM 59 °F 55 °F 83%  in 4 mi WSW 8.9 mph - - Thunderstorm Light Thunderstorm
2:20 PM 57.2 °F 55.4 °F 94% 29.92 in 5.6 mi WSW 3.5 mph - N/A Rain Rain Showers
2:50 PM 59.0 °F 55.4 °F 88% 29.92 in 6.2 mi NNW 3.5 mph - N/A Rain Light Rain Showers
3:20 PM 59.0 °F 55.4 °F 88% 29.92 in 6.2 mi Variable 2.3 mph - N/A   Mostly Cloudy
3:50 PM 60.8 °F 57.2 °F 88% 29.92 in 6.2 mi Calm Calm - N/A   Mostly Cloudy
4:20 PM 60.8 °F 57.2 °F 88% 29.92 in 6.2 mi Calm Calm - N/A Rain Light Rain Showers
4:50 PM 60.8 °F 57.2 °F 88% 29.92 in 6.2 mi Variable 1.2 mph - N/A Rain Light Rain Showers
5:20 PM 60.8 °F 57.2 °F 88% 29.92 in 5.6 mi SE 5.8 mph - N/A Rain Light Rain Showers
5:50 PM 59.0 °F 57.2 °F 94% 29.92 in - SSW 5.8 mph - N/A Rain Light Rain Showers
6:20 PM 60.8 °F 57.2 °F 88% 29.92 in 6.2 mi SW 3.5 mph - N/A   Mostly Cloudy
6:50 PM 59.0 °F 57.2 °F 94% 29.92 in 6.2 mi NW 5.8 mph - N/A   Mostly Cloudy
7:20 PM 59.0 °F 55.4 °F 88% 29.92 in 6.2 mi NNW 4.6 mph - N/A   Mostly Cloudy
7:50 PM 59.0 °F 55.4 °F 88% 29.92 in 6.2 mi NNW 4.6 mph - N/A   Mostly Cloudy
8:00 PM 60 °F 55 °F 80%  in 31 mi NW 6.7 mph - -   Partly Cloudy
8:20 PM 59.0 °F 55.4 °F 88% 29.92 in 6.2 mi NW 4.6 mph - N/A   Scattered Clouds
8:50 PM 59.0 °F 53.6 °F 82% 29.95 in 6.2 mi NNW 4.6 mph - N/A   Scattered Clouds
9:20 PM 57.2 °F 53.6 °F 88% 29.95 in 6.2 mi NNE 5.8 mph - N/A   Scattered Clouds
9:50 PM 57.2 °F 53.6 °F 88% 29.95 in 6.2 mi North 4.6 mph - N/A   Scattered Clouds
10:20 PM 57.2 °F 51.8 °F 82% 29.95 in 6.2 mi NW 3.5 mph - N/A   Mostly Cloudy
10:50 PM 55.4 °F 50.0 °F 82% 29.98 in 6.2 mi NW 4.6 mph - N/A   Mostly Cloudy
11:20 PM 55.4 °F 51.8 °F 88% 29.98 in 6.2 mi NW 3.5 mph - N/A   Mostly Cloudy
11:50 PM 53.6 °F 50.0 °F 88% 29.98 in 6.2 mi Variable 2.3 mph - N/A   Mostly Cloudy